Location: Unspecified
(43.1763°N, 79.4719°W)
Time: 16:06:20
(UTC-04:00)

Hubble Space Telescope - Visible Passes

Search period start: 25 May 2017 00:00
Search period end: 04 June 2017 00:00
Orbit: 538 x 541 km, 28.5° (Epoch: 24 May)

Date Brightness Start Highest point End Pass type
(mag) Time Alt. Az. Time Alt. Az. Time Alt. Az.
31 May 3.0 21:48:03 10° S 21:48:27 10° S 21:48:52 10° S visible
01 Jun 3.0 21:37:34 10° S 21:38:14 10° S 21:38:55 10° S visible
02 Jun 3.0 21:27:24 10° S 21:28:01 10° S 21:28:39 10° S visible
